Home > Weather > Weil am Rhein > Past weeks

Flag for Germany Past Weather in Weil am Rhein, Baden-Württemberg, Germany — Yesterday and Last 2 Weeks

Now
71 °F

Overcast.


Feels Like: 75 °F
Forecast: 57 / 80 °F
Wind: 10 mph from West

Location: Bale-Mulhouse

Current Time: Aug 29, 2016 at 9:36:15 AM

Latest Report: Aug 29, 2016 at 8:00 AM


Visibility: 31 mi

Pressure: 30.09 "Hg

Humidity: 67%

Dew Point: 59 °F

Location of Weil am RheinLocation

Past Weather in Weil am Rhein — Graph

°F

Weil am Rhein Temperature Yesterday

Maximum temperature yesterday: 90 °F (at 3:00 PM)
Minimum temperature yesterday: 66 °F (at 6:00 AM)
Average temperature yesterday: 77 °F

High & Low Weather Summary for the Past Weeks

 TemperatureHumidityPressure
High95 °F (Aug 27, 5:00 PM)98% (Aug 18, 2:00 AM)30.38 "Hg (Aug 18, 2:00 AM)
Low52 °F (Aug 23, 6:00 AM)20% (Aug 27, 6:00 PM)29.79 "Hg (Aug 17, 6:00 PM)
Average70 °F73%30.05 "Hg
* Reported Aug 14 8:00 AM — Aug 29 8:00 AM, Weil am Rhein, Weather by CustomWeather, © 2016

Note: Actual official high and low records may vary slightly from our data, if they occured in-between our weather recording intervals... More about our weather records

Advertising

Weil am Rhein Weather History for the Previous 24 Hours

Scroll right to see more
 ConditionsComfort  
Time TempWeatherWind HumidityBarometerVisibility
8:00 AM
Mon, Aug 29
71 °FOvercast.10 mph67%30.09 "Hg31 mi
7:00 AM70 °FOvercast.8 mph70%30.08 "Hg31 mi
6:00 AM71 °FOvercast.7 mph71%30.07 "Hg19 mi
5:00 AM70 °FOvercast.8 mph71%30.07 "Hg19 mi
4:00 AM71 °FOvercast.10 mph70%30.07 "Hg37 mi
3:00 AM72 °FOvercast.10 mph70%30.07 "Hg37 mi
2:00 AM73 °FOvercast.9 mph68%30.06 "Hg34 mi
1:00 AM73 °FOvercast.7 mph69%30.06 "Hg37 mi
12:00 AM71 °FPassing clouds.6 mph74%30.06 "Hg31 mi
11:00 PM
Sun, Aug 28
69 °FPassing clouds.5 mph82%30.05 "Hg31 mi
10:00 PM72 °FPassing clouds.5 mph76%30.03 "Hg31 mi
9:00 PM76 °FPassing clouds.5 mph67%30.01 "Hg31 mi
8:00 PM81 °FOvercast.3 mph55%29.99 "Hg37 mi
7:00 PM84 °FOvercast.6 mph48%29.98 "Hg37 mi
6:00 PM86 °FOvercast.10 mph41%29.98 "Hg37 mi
5:00 PM89 °FOvercast.9 mph34%29.96 "Hg37 mi
4:00 PM90 °FPartly sunny.9 mph36%29.96 "Hg37 mi
3:00 PM90 °FPassing clouds.10 mph32%29.96 "Hg37 mi
2:00 PM90 °FPassing clouds.9 mph32%29.98 "Hg37 mi
1:00 PM88 °FPassing clouds.9 mph36%30.00 "Hg37 mi
12:00 PM85 °FPassing clouds.7 mph40%30.02 "Hg37 mi
11:00 AM81 °FPassing clouds.5 mph56%30.03 "Hg37 mi
10:00 AM77 °FPassing clouds.5 mph66%30.04 "Hg37 mi
9:00 AM72 °FPassing clouds.8 mph74%30.05 "Hg37 mi
Weather by CustomWeather, © 2016

See weather overviewHow to use our weather pages